sat.trackr.live / text

‹ back to catalog

QIANFAN-70

NORAD 62800 · 2025-016R

PAYLOAD ACTIVE UNKNOWN

§ Identity

Operator
Country
PRC
Launch date
2025-01-23
Launch site
TAISC
Launch vehicle
Mass (kg)
RCS (m²)

External: N2YO · Heavens-Above · Gunter

§ Orbital elements

Epoch: 2026-05-25T04:07:33.168288Z

Period
106.59 min
Inclination
88.9729°
Eccentricity
0.0013545
Mean motion
13.51013693 rev/d
Perigee alt
1,058.4 km
Apogee alt
1,078.6 km
Semi-major
7,446.7 km
B*
1.5129e-4
RAAN
86.1513°
Arg perigee
217.5958°
Mean anomaly
142.4248°
Rev number
6,930

§ Raw data

QIANFAN-701 62800U 25016R   26145.17191167  .00000110  00000+0  15129-3 0  99932 62800  88.9729  86.1513 0013545 217.5958 142.4248 13.51013693 69305

JSON: /api/v1/satellites/62800 · /tle

For live sub-satellite position, see the globe view (requires WebGL).

§ Visibility from observer

Set your observer location to see the next 7 days of passes ≥ 10°. The values pass through the URL so the page stays shareable.

No JS? Fill the form by hand. The geolocation button needs JavaScript.